"Time","A4261110","A4261110"
"and",400.00,3000.00
"Date","Discharge (ML/Day)","Cond @25 degC(uS/cm)"
"","Mean","Mean"
09:00:00 10/10/1997,,
09:00:00 11/10/1997,,549.948
09:00:00 12/10/1997,,562.444
09:00:00 13/10/1997,,565.41
09:00:00 14/10/1997,,562.031
09:00:00 15/10/1997,,555.172
09:00:00 16/10/1997,,562.452
09:00:00 17/10/1997,,570.126
09:00:00 18/10/1997,,576.682
09:00:00 19/10/1997,,589.005
09:00:00 20/10/1997,,586.906
09:00:00 21/10/1997,,590.068
09:00:00 22/10/1997,,595.036
09:00:00 23/10/1997,,595.255
09:00:00 24/10/1997,,593.042
09:00:00 25/10/1997,,594.177
09:00:00 26/10/1997,,598.172
09:00:00 27/10/1997,,601.438
09:00:00 28/10/1997,,615.0
09:00:00 29/10/1997,,623.823
09:00:00 30/10/1997,,633.328
09:00:00 31/10/1997,,635.682
09:00:00 01/11/1997,,643.345
09:00:00 02/11/1997,,648.53
09:00:00 03/11/1997,,650.123
09:00:00 04/11/1997,,664.888
09:00:00 05/11/1997,,681.828
09:00:00 06/11/1997,,700.708
09:00:00 07/11/1997,,715.885
09:00:00 08/11/1997,,721.593
09:00:00 09/11/1997,,723.376
09:00:00 10/11/1997,,719.807
09:00:00 11/11/1997,,717.564
09:00:00 12/11/1997,,720.931
09:00:00 13/11/1997,,728.021
09:00:00 14/11/1997,,734.451
09:00:00 15/11/1997,,742.939
09:00:00 16/11/1997,,752.141
09:00:00 17/11/1997,,736.725
09:00:00 18/11/1997,,726.837
09:00:00 19/11/1997,,714.078
09:00:00 20/11/1997,,707.927
09:00:00 21/11/1997,,709.31
09:00:00 22/11/1997,,708.472
09:00:00 23/11/1997,,714.241
09:00:00 24/11/1997,,720.681
09:00:00 25/11/1997,,733.443
09:00:00 26/11/1997,,747.12
09:00:00 27/11/1997,,751.896
09:00:00 28/11/1997,,753.62
09:00:00 29/11/1997,,757.236
09:00:00 30/11/1997,,756.806
09:00:00 01/12/1997,,764.743
09:00:00 02/12/1997,,765.748
09:00:00 03/12/1997,,767.097
09:00:00 04/12/1997,,769.49
09:00:00 05/12/1997,,763.458
09:00:00 06/12/1997,,755.656
09:00:00 07/12/1997,,735.172
09:00:00 08/12/1997,,732.797
09:00:00 09/12/1997,,726.593
09:00:00 10/12/1997,,725.53
09:00:00 11/12/1997,,726.237
09:00:00 12/12/1997,,723.001
09:00:00 13/12/1997,,719.368
09:00:00 14/12/1997,,719.155
09:00:00 15/12/1997,,717.208
09:00:00 16/12/1997,,719.34
09:00:00 17/12/1997,,729.682
09:00:00 18/12/1997,,742.417
09:00:00 19/12/1997,,727.542
09:00:00 20/12/1997,,704.219
09:00:00 21/12/1997,,691.135
09:00:00 22/12/1997,,690.0
09:00:00 23/12/1997,,680.229
09:00:00 24/12/1997,,666.896
09:00:00 25/12/1997,,663.161
09:00:00 26/12/1997,,662.692
09:00:00 27/12/1997,,673.861
09:00:00 28/12/1997,,677.62
09:00:00 29/12/1997,,673.243
09:00:00 30/12/1997,,676.741
09:00:00 31/12/1997,,676.167
09:00:00 01/01/1998,,670.823
09:00:00 02/01/1998,,670.531
09:00:00 03/01/1998,,677.271
09:00:00 04/01/1998,,692.672
09:00:00 05/01/1998,,696.438
09:00:00 06/01/1998,,682.221
09:00:00 07/01/1998,,689.432
09:00:00 08/01/1998,,686.977
09:00:00 09/01/1998,,693.809
09:00:00 10/01/1998,,691.462
09:00:00 11/01/1998,,685.739
09:00:00 12/01/1998,,682.043
09:00:00 13/01/1998,,670.71
09:00:00 14/01/1998,,645.036
09:00:00 15/01/1998,,638.9
09:00:00 16/01/1998,,633.032
09:00:00 17/01/1998,,625.119
09:00:00 18/01/1998,,601.724
09:00:00 19/01/1998,,589.646
09:00:00 20/01/1998,,584.75
09:00:00 21/01/1998,,580.258
09:00:00 22/01/1998,,570.238
09:00:00 23/01/1998,,565.817
09:00:00 24/01/1998,,568.998
09:00:00 25/01/1998,,572.033
09:00:00 26/01/1998,,577.682
09:00:00 27/01/1998,,574.563
09:00:00 28/01/1998,,563.194
09:00:00 29/01/1998,,567.642
09:00:00 30/01/1998,,572.304
09:00:00 31/01/1998,,566.485
09:00:00 01/02/1998,,561.867
09:00:00 02/02/1998,,562.259
09:00:00 03/02/1998,,559.702
09:00:00 04/02/1998,,558.355
09:00:00 05/02/1998,,564.006
09:00:00 06/02/1998,,572.834
09:00:00 07/02/1998,,577.082
09:00:00 08/02/1998,,576.907
09:00:00 09/02/1998,,574.296
09:00:00 10/02/1998,,577.973
09:00:00 11/02/1998,,572.709
09:00:00 12/02/1998,,561.883
09:00:00 13/02/1998,,558.842
09:00:00 14/02/1998,,557.575
09:00:00 15/02/1998,,556.959
09:00:00 16/02/1998,,555.418
09:00:00 17/02/1998,,555.99
09:00:00 18/02/1998,,556.0
09:00:00 19/02/1998,,556.222
09:00:00 20/02/1998,,557.078
09:00:00 21/02/1998,,558.051
09:00:00 22/02/1998,,559.565
09:00:00 23/02/1998,,561.284
09:00:00 24/02/1998,,563.27
09:00:00 25/02/1998,,566.45
09:00:00 26/02/1998,,569.0
09:00:00 27/02/1998,,570.923
09:00:00 28/02/1998,,572.769
09:00:00 01/03/1998,,574.297
09:00:00 02/03/1998,,578.625
09:00:00 03/03/1998,,588.541
09:00:00 04/03/1998,,594.251
09:00:00 05/03/1998,,599.014
09:00:00 06/03/1998,,601.424
09:00:00 07/03/1998,,603.646
09:00:00 08/03/1998,,612.125
09:00:00 09/03/1998,,614.167
09:00:00 10/03/1998,,613.042
09:00:00 11/03/1998,,611.778
09:00:00 12/03/1998,,608.768
09:00:00 13/03/1998,,606.797
09:00:00 14/03/1998,,606.126
09:00:00 15/03/1998,,607.364
09:00:00 16/03/1998,,609.337
09:00:00 17/03/1998,,606.892
09:00:00 18/03/1998,,599.948
09:00:00 19/03/1998,,596.344
09:00:00 20/03/1998,,597.865
09:00:00 21/03/1998,,603.219
09:00:00 22/03/1998,,608.74
09:00:00 23/03/1998,,613.115
09:00:00 24/03/1998,,610.76
09:00:00 25/03/1998,,605.698
09:00:00 26/03/1998,,600.162
09:00:00 27/03/1998,,598.734
09:00:00 28/03/1998,,603.5
09:00:00 29/03/1998,,606.49
09:00:00 30/03/1998,,610.406
09:00:00 31/03/1998,,608.0
09:00:00 01/04/1998,,604.76
09:00:00 02/04/1998,,601.674
09:00:00 03/04/1998,,598.795
09:00:00 04/04/1998,,600.219
09:00:00 05/04/1998,,597.399
09:00:00 06/04/1998,,597.595
09:00:00 07/04/1998,,604.724
09:00:00 08/04/1998,,611.865
09:00:00 09/04/1998,,614.832
09:00:00 10/04/1998,,619.956
09:00:00 11/04/1998,,619.503
09:00:00 12/04/1998,,618.966
09:00:00 13/04/1998,,616.085
09:00:00 14/04/1998,,616.715
09:00:00 15/04/1998,,614.37
09:00:00 16/04/1998,,617.885
09:00:00 17/04/1998,,619.842
09:00:00 18/04/1998,,623.803
09:00:00 19/04/1998,,628.066
09:00:00 20/04/1998,,625.082
09:00:00 21/04/1998,,625.9
09:00:00 22/04/1998,,620.176
09:00:00 23/04/1998,,613.175
09:00:00 24/04/1998,,612.115
09:00:00 25/04/1998,,614.497
09:00:00 26/04/1998,,621.729
09:00:00 27/04/1998,,624.816
09:00:00 28/04/1998,,634.845
09:00:00 29/04/1998,,643.078
09:00:00 30/04/1998,,641.2
09:00:00 01/05/1998,,643.845
09:00:00 02/05/1998,,649.412
09:00:00 03/05/1998,,655.493
09:00:00 04/05/1998,,653.001
09:00:00 05/05/1998,,651.048
09:00:00 06/05/1998,,650.301
09:00:00 07/05/1998,,651.182
09:00:00 08/05/1998,,655.744
09:00:00 09/05/1998,,659.189
09:00:00 10/05/1998,,663.854
09:00:00 11/05/1998,,666.749
09:00:00 12/05/1998,,670.343
09:00:00 13/05/1998,,668.368
09:00:00 14/05/1998,,667.643
09:00:00 15/05/1998,,672.3
09:00:00 16/05/1998,,682.359
09:00:00 17/05/1998,,691.115
09:00:00 18/05/1998,,703.678
09:00:00 19/05/1998,,714.644
09:00:00 20/05/1998,,716.92
09:00:00 21/05/1998,,717.218
09:00:00 22/05/1998,,712.965
09:00:00 23/05/1998,,702.933
09:00:00 24/05/1998,,711.675
09:00:00 25/05/1998,,721.342
09:00:00 26/05/1998,,721.013
09:00:00 27/05/1998,,725.894
09:00:00 28/05/1998,,736.609
09:00:00 29/05/1998,,747.047
09:00:00 30/05/1998,,747.869
09:00:00 31/05/1998,,744.851
09:00:00 01/06/1998,,746.677
09:00:00 02/06/1998,,742.242
09:00:00 03/06/1998,,739.932
09:00:00 04/06/1998,,741.384
09:00:00 05/06/1998,,749.725
09:00:00 06/06/1998,,756.328
09:00:00 07/06/1998,,761.061
09:00:00 08/06/1998,,759.521
09:00:00 09/06/1998,,757.595
09:00:00 10/06/1998,,760.82
09:00:00 11/06/1998,,763.928
09:00:00 12/06/1998,,765.656
09:00:00 13/06/1998,,773.86
09:00:00 14/06/1998,,774.723
09:00:00 15/06/1998,,767.299
09:00:00 16/06/1998,,762.806
09:00:00 17/06/1998,,762.156
09:00:00 18/06/1998,,760.021
09:00:00 19/06/1998,,759.49
09:00:00 20/06/1998,,755.51
09:00:00 21/06/1998,,755.833
09:00:00 22/06/1998,,757.146
09:00:00 23/06/1998,,764.198
09:00:00 24/06/1998,,771.388
09:00:00 25/06/1998,,775.523
09:00:00 26/06/1998,,781.319
09:00:00 27/06/1998,,791.5
09:00:00 28/06/1998,,790.927
09:00:00 29/06/1998,,793.844
09:00:00 30/06/1998,,798.542
09:00:00 01/07/1998,,802.26
09:00:00 02/07/1998,,801.344
09:00:00 03/07/1998,,798.792
09:00:00 04/07/1998,,801.156
09:00:00 05/07/1998,,807.542
09:00:00 06/07/1998,,800.625
09:00:00 07/07/1998,,808.042
09:00:00 08/07/1998,,811.885
09:00:00 09/07/1998,,804.406
09:00:00 10/07/1998,,804.438
09:00:00 11/07/1998,,795.292
09:00:00 12/07/1998,,785.625
09:00:00 13/07/1998,,791.26
09:00:00 14/07/1998,,796.458
09:00:00 15/07/1998,,793.563
09:00:00 16/07/1998,,798.358
09:00:00 17/07/1998,,788.204
09:00:00 18/07/1998,,771.468
09:00:00 19/07/1998,,758.949
09:00:00 20/07/1998,,754.927
09:00:00 21/07/1998,,754.938
09:00:00 22/07/1998,,754.796
09:00:00 23/07/1998,,748.85
09:00:00 24/07/1998,,749.333
09:00:00 25/07/1998,,752.531
09:00:00 26/07/1998,,751.938
09:00:00 27/07/1998,,735.979
09:00:00 28/07/1998,,725.722
09:00:00 29/07/1998,,733.695
09:00:00 30/07/1998,,733.0
09:00:00 31/07/1998,,715.823
09:00:00 01/08/1998,,697.521
09:00:00 02/08/1998,,678.052
09:00:00 03/08/1998,,679.396
09:00:00 04/08/1998,,677.844
09:00:00 05/08/1998,,669.271
09:00:00 06/08/1998,,665.479
09:00:00 07/08/1998,,659.146
09:00:00 08/08/1998,,671.208
09:00:00 09/08/1998,,684.188
09:00:00 10/08/1998,,680.656
09:00:00 11/08/1998,,669.877
09:00:00 12/08/1998,,666.196
09:00:00 13/08/1998,,699.333
09:00:00 14/08/1998,,748.917
09:00:00 15/08/1998,,732.604
09:00:00 16/08/1998,,711.125
09:00:00 17/08/1998,,684.917
09:00:00 18/08/1998,,666.208
09:00:00 19/08/1998,,669.99
09:00:00 20/08/1998,,671.26
09:00:00 21/08/1998,,666.521
09:00:00 22/08/1998,,668.084
09:00:00 23/08/1998,,669.979
09:00:00 24/08/1998,,677.021
09:00:00 25/08/1998,,679.25
09:00:00 26/08/1998,,677.031
09:00:00 27/08/1998,,670.0
09:00:00 28/08/1998,,665.363
09:00:00 29/08/1998,,671.815
09:00:00 30/08/1998,,672.555
09:00:00 31/08/1998,,671.23
09:00:00 01/09/1998,,672.757
09:00:00 02/09/1998,,685.031
09:00:00 03/09/1998,,700.479
09:00:00 04/09/1998,,730.229
09:00:00 05/09/1998,,754.667
09:00:00 06/09/1998,,718.938
09:00:00 07/09/1998,,678.823
09:00:00 08/09/1998,,668.0
09:00:00 09/09/1998,,676.563
09:00:00 10/09/1998,,671.323
09:00:00 11/09/1998,,661.729
09:00:00 12/09/1998,,653.948
09:00:00 13/09/1998,,636.646
09:00:00 14/09/1998,,633.292
09:00:00 15/09/1998,,639.625
09:00:00 16/09/1998,,618.26
09:00:00 17/09/1998,,599.667
09:00:00 18/09/1998,,591.979
09:00:00 19/09/1998,,584.531
09:00:00 20/09/1998,,541.213
09:00:00 21/09/1998,,480.11
09:00:00 22/09/1998,,442.479
09:00:00 23/09/1998,,437.323
09:00:00 24/09/1998,,447.342
09:00:00 25/09/1998,,468.742
09:00:00 26/09/1998,,493.135
09:00:00 27/09/1998,,484.865
09:00:00 28/09/1998,,443.719
09:00:00 29/09/1998,,427.927
09:00:00 30/09/1998,,420.99
09:00:00 01/10/1998,,421.542
09:00:00 02/10/1998,,432.938
09:00:00 03/10/1998,,435.073
09:00:00 04/10/1998,,418.323
09:00:00 05/10/1998,,407.583
09:00:00 06/10/1998,,394.917
09:00:00 07/10/1998,,397.938
09:00:00 08/10/1998,,382.74
09:00:00 09/10/1998,,381.995
09:00:00 10/10/1998,,396.828
09:00:00 11/10/1998,,388.188
09:00:00 12/10/1998,,368.667
09:00:00 13/10/1998,,367.116
09:00:00 14/10/1998,,370.756
09:00:00 15/10/1998,,375.758
09:00:00 16/10/1998,,387.068
09:00:00 17/10/1998,,385.91
09:00:00 18/10/1998,,377.04
09:00:00 19/10/1998,,369.91
09:00:00 20/10/1998,,361.021
09:00:00 21/10/1998,,353.356
09:00:00 22/10/1998,,352.953
09:00:00 23/10/1998,,352.207
09:00:00 24/10/1998,,353.165
09:00:00 25/10/1998,,360.575
09:00:00 26/10/1998,,349.144
09:00:00 27/10/1998,,341.298
09:00:00 28/10/1998,,340.338
09:00:00 29/10/1998,,353.094
09:00:00 30/10/1998,,358.344
09:00:00 31/10/1998,,349.323
09:00:00 01/11/1998,,351.906
09:00:00 02/11/1998,,365.344
09:00:00 03/11/1998,,393.604
09:00:00 04/11/1998,,388.915
09:00:00 05/11/1998,,368.689
09:00:00 06/11/1998,,369.792
09:00:00 07/11/1998,,387.313
09:00:00 08/11/1998,,406.658
09:00:00 09/11/1998,,420.883
09:00:00 10/11/1998,,437.854
09:00:00 11/11/1998,,459.25
09:00:00 12/11/1998,,464.25
09:00:00 13/11/1998,,458.675
09:00:00 14/11/1998,,450.408
09:00:00 15/11/1998,,442.177
09:00:00 16/11/1998,,443.802
09:00:00 17/11/1998,,452.396
09:00:00 18/11/1998,,471.781
09:00:00 19/11/1998,,513.802
09:00:00 20/11/1998,,512.641
09:00:00 21/11/1998,,478.3
09:00:00 22/11/1998,,451.165
09:00:00 23/11/1998,,419.248
09:00:00 24/11/1998,,388.788
09:00:00 25/11/1998,,384.545
09:00:00 26/11/1998,,382.266
09:00:00 27/11/1998,,375.995
09:00:00 28/11/1998,,369.103
09:00:00 29/11/1998,,362.839
09:00:00 30/11/1998,,359.154
09:00:00 01/12/1998,,364.519
09:00:00 02/12/1998,,360.387
09:00:00 03/12/1998,,355.14
09:00:00 04/12/1998,,340.542
09:00:00 05/12/1998,,344.653
09:00:00 06/12/1998,,336.918
09:00:00 07/12/1998,,336.184
09:00:00 08/12/1998,,332.188
09:00:00 09/12/1998,,335.725
09:00:00 10/12/1998,,342.301
09:00:00 11/12/1998,,352.3
09:00:00 12/12/1998,,365.855
09:00:00 13/12/1998,,386.615
09:00:00 14/12/1998,,405.2
09:00:00 15/12/1998,,416.653
09:00:00 16/12/1998,,412.758
09:00:00 17/12/1998,,404.721
09:00:00 18/12/1998,,397.781
09:00:00 19/12/1998,,396.014
09:00:00 20/12/1998,,398.249
09:00:00 21/12/1998,,402.414
09:00:00 22/12/1998,,410.612
09:00:00 23/12/1998,,424.106
09:00:00 24/12/1998,,445.792
09:00:00 25/12/1998,,445.5
09:00:00 26/12/1998,,441.035
09:00:00 27/12/1998,,445.423
09:00:00 28/12/1998,,453.298
09:00:00 29/12/1998,,461.367
09:00:00 30/12/1998,,460.315
09:00:00 31/12/1998,,456.977
09:00:00 01/01/1999,,453.741
09:00:00 02/01/1999,,451.254
09:00:00 03/01/1999,,457.146
09:00:00 04/01/1999,,448.833
09:00:00 05/01/1999,,443.049
09:00:00 06/01/1999,,458.427
09:00:00 07/01/1999,,457.809
09:00:00 08/01/1999,,449.296
09:00:00 09/01/1999,,464.275
09:00:00 10/01/1999,,470.182
09:00:00 11/01/1999,,476.291
09:00:00 12/01/1999,,480.699
09:00:00 13/01/1999,,477.303
09:00:00 14/01/1999,,476.082
09:00:00 15/01/1999,,475.217
09:00:00 16/01/1999,,469.418
09:00:00 17/01/1999,,473.635
09:00:00 18/01/1999,,480.348
09:00:00 19/01/1999,,488.107
09:00:00 20/01/1999,,489.581
09:00:00 21/01/1999,,493.677
09:00:00 22/01/1999,,494.149
09:00:00 23/01/1999,,494.298
09:00:00 24/01/1999,,492.487
09:00:00 25/01/1999,,493.652
09:00:00 26/01/1999,,492.701
09:00:00 27/01/1999,,501.059
09:00:00 28/01/1999,,513.874
09:00:00 29/01/1999,,527.112
09:00:00 30/01/1999,,526.654
09:00:00 31/01/1999,,520.037
09:00:00 01/02/1999,,509.25
09:00:00 02/02/1999,,505.809
09:00:00 03/02/1999,,506.484
09:00:00 04/02/1999,,512.081
09:00:00 05/02/1999,,514.132
09:00:00 06/02/1999,,511.346
09:00:00 07/02/1999,,524.78
09:00:00 08/02/1999,,538.125
09:00:00 09/02/1999,,529.979
09:00:00 10/02/1999,,516.771
09:00:00 11/02/1999,,506.783
09:00:00 12/02/1999,,504.241
09:00:00 13/02/1999,,495.503
09:00:00 14/02/1999,,496.205
09:00:00 15/02/1999,,509.825
09:00:00 16/02/1999,,504.955
09:00:00 17/02/1999,,494.234
09:00:00 18/02/1999,,492.825
09:00:00 19/02/1999,,487.55
09:00:00 20/02/1999,,492.503
09:00:00 21/02/1999,,499.556
09:00:00 22/02/1999,,500.11
09:00:00 23/02/1999,,499.371
09:00:00 24/02/1999,,497.188
09:00:00 25/02/1999,,491.774
09:00:00 26/02/1999,,483.603
09:00:00 27/02/1999,,487.519
09:00:00 28/02/1999,,492.948
09:00:00 01/03/1999,,496.201
09:00:00 02/03/1999,,490.625
09:00:00 03/03/1999,,495.804
09:00:00 04/03/1999,,494.143
09:00:00 05/03/1999,,495.663
09:00:00 06/03/1999,,493.207
09:00:00 07/03/1999,,491.735
09:00:00 08/03/1999,,489.866
09:00:00 09/03/1999,,489.29
09:00:00 10/03/1999,,491.558
09:00:00 11/03/1999,,496.224
09:00:00 12/03/1999,,494.956
09:00:00 13/03/1999,,499.22
09:00:00 14/03/1999,,498.074
09:00:00 15/03/1999,,495.586
09:00:00 16/03/1999,,489.656
09:00:00 17/03/1999,,475.708
09:00:00 18/03/1999,,468.936
09:00:00 19/03/1999,,473.86
09:00:00 20/03/1999,,476.508
09:00:00 21/03/1999,,470.2
09:00:00 22/03/1999,,469.446
09:00:00 23/03/1999,,473.063
09:00:00 24/03/1999,,471.797
09:00:00 25/03/1999,,470.745
09:00:00 26/03/1999,,468.979
09:00:00 27/03/1999,,466.106
09:00:00 28/03/1999,,466.998
09:00:00 29/03/1999,,472.536
09:00:00 30/03/1999,,483.103
09:00:00 31/03/1999,,487.039
09:00:00 01/04/1999,,485.907
09:00:00 02/04/1999,,482.211
09:00:00 03/04/1999,,463.935
09:00:00 04/04/1999,,468.79
09:00:00 05/04/1999,,480.84
09:00:00 06/04/1999,,485.512
09:00:00 07/04/1999,,486.043
09:00:00 08/04/1999,,485.559
09:00:00 09/04/1999,,480.09
09:00:00 10/04/1999,,470.785
09:00:00 11/04/1999,,475.539
09:00:00 12/04/1999,,469.42
09:00:00 13/04/1999,,458.254
09:00:00 14/04/1999,,454.074
09:00:00 15/04/1999,,447.113
09:00:00 16/04/1999,,430.866
09:00:00 17/04/1999,,432.963
09:00:00 18/04/1999,,436.024
09:00:00 19/04/1999,,438.553
09:00:00 20/04/1999,,431.9
09:00:00 21/04/1999,,429.97
09:00:00 22/04/1999,,431.289
09:00:00 23/04/1999,,434.018
09:00:00 24/04/1999,,433.999
09:00:00 25/04/1999,,435.443
09:00:00 26/04/1999,,438.564
09:00:00 27/04/1999,,442.448
09:00:00 28/04/1999,,440.171
09:00:00 29/04/1999,,441.499
09:00:00 30/04/1999,,446.07
09:00:00 01/05/1999,,451.097
09:00:00 02/05/1999,,451.688
09:00:00 03/05/1999,,452.811
09:00:00 04/05/1999,,457.246
09:00:00 05/05/1999,,457.492
09:00:00 06/05/1999,,460.273
09:00:00 07/05/1999,,462.563
09:00:00 08/05/1999,,467.307
09:00:00 09/05/1999,,475.733
09:00:00 10/05/1999,,475.065
09:00:00 11/05/1999,,469.839
09:00:00 12/05/1999,,471.144
09:00:00 13/05/1999,,475.69
09:00:00 14/05/1999,,479.105
09:00:00 15/05/1999,,461.796
09:00:00 16/05/1999,,449.096
09:00:00 17/05/1999,,446.641
09:00:00 18/05/1999,,441.782
09:00:00 19/05/1999,,426.522
09:00:00 20/05/1999,,420.498
09:00:00 21/05/1999,,423.608
09:00:00 22/05/1999,,422.248
09:00:00 23/05/1999,,417.158
09:00:00 24/05/1999,,415.179
09:00:00 25/05/1999,,399.702
09:00:00 26/05/1999,,388.047
09:00:00 27/05/1999,,380.88
09:00:00 28/05/1999,,372.56
09:00:00 29/05/1999,,366.811
09:00:00 30/05/1999,,365.536
09:00:00 31/05/1999,,361.878
09:00:00 01/06/1999,,368.223
09:00:00 02/06/1999,,378.991
09:00:00 03/06/1999,,383.121
09:00:00 04/06/1999,,394.009
09:00:00 05/06/1999,,403.756
09:00:00 06/06/1999,,409.794
09:00:00 07/06/1999,,410.849
09:00:00 08/06/1999,,412.781
09:00:00 09/06/1999,,416.809
09:00:00 10/06/1999,,419.622
09:00:00 11/06/1999,,436.147
09:00:00 12/06/1999,,446.613
09:00:00 13/06/1999,,447.622
09:00:00 14/06/1999,,441.667
09:00:00 15/06/1999,,448.578
09:00:00 16/06/1999,,457.154
09:00:00 17/06/1999,,468.623
09:00:00 18/06/1999,,471.68
09:00:00 19/06/1999,,470.259
09:00:00 20/06/1999,,467.867
09:00:00 21/06/1999,,464.487
09:00:00 22/06/1999,,459.597
09:00:00 23/06/1999,,459.054
09:00:00 24/06/1999,,447.708
09:00:00 25/06/1999,,436.293
09:00:00 26/06/1999,,433.081
09:00:00 27/06/1999,,426.627
09:00:00 28/06/1999,,424.239
09:00:00 29/06/1999,,424.73
09:00:00 30/06/1999,,426.912
09:00:00 01/07/1999,,423.863
09:00:00 02/07/1999,,421.981
09:00:00 03/07/1999,,421.032
09:00:00 04/07/1999,,419.266
09:00:00 05/07/1999,,420.907
09:00:00 06/07/1999,,423.557
09:00:00 07/07/1999,,422.834
09:00:00 08/07/1999,,421.247
09:00:00 09/07/1999,,420.075
09:00:00 10/07/1999,,417.752
09:00:00 11/07/1999,,416.183
09:00:00 12/07/1999,,414.337
09:00:00 13/07/1999,,416.782
09:00:00 14/07/1999,,416.747
09:00:00 15/07/1999,,415.276
09:00:00 16/07/1999,,414.118
09:00:00 17/07/1999,,412.518
09:00:00 18/07/1999,,412.23
09:00:00 19/07/1999,,412.667
09:00:00 20/07/1999,,414.154
09:00:00 21/07/1999,,415.238
09:00:00 22/07/1999,,414.882
09:00:00 23/07/1999,,413.627
09:00:00 24/07/1999,,412.098
09:00:00 25/07/1999,,409.647
09:00:00 26/07/1999,,408.882
09:00:00 27/07/1999,,409.682
09:00:00 28/07/1999,,409.439
09:00:00 29/07/1999,,410.503
09:00:00 30/07/1999,,411.034
09:00:00 31/07/1999,,410.354
09:00:00 01/08/1999,,411.702
09:00:00 02/08/1999,,413.91
09:00:00 03/08/1999,,416.171
09:00:00 04/08/1999,,416.719
09:00:00 05/08/1999,,416.691
09:00:00 06/08/1999,,416.775
09:00:00 07/08/1999,,415.78
09:00:00 08/08/1999,,415.523
09:00:00 09/08/1999,,415.933
09:00:00 10/08/1999,,414.339
09:00:00 11/08/1999,,411.69
09:00:00 12/08/1999,,410.381
09:00:00 13/08/1999,,408.632
09:00:00 14/08/1999,,409.109
09:00:00 15/08/1999,,409.907
09:00:00 16/08/1999,,407.825
09:00:00 17/08/1999,,405.235
09:00:00 18/08/1999,,404.876
09:00:00 19/08/1999,,404.217
09:00:00 20/08/1999,,401.504
09:00:00 21/08/1999,,395.878
09:00:00 22/08/1999,,400.879
09:00:00 23/08/1999,,400.016
09:00:00 24/08/1999,,395.781
09:00:00 25/08/1999,,398.87
09:00:00 26/08/1999,,395.927
09:00:00 27/08/1999,,394.0
09:00:00 28/08/1999,,392.192
09:00:00 29/08/1999,,390.27
09:00:00 30/08/1999,,383.873
09:00:00 31/08/1999,,382.302
09:00:00 01/09/1999,,382.457
09:00:00 02/09/1999,,380.193
09:00:00 03/09/1999,,378.214
09:00:00 04/09/1999,,376.037
09:00:00 05/09/1999,,381.276
09:00:00 06/09/1999,,383.114
09:00:00 07/09/1999,,382.364
09:00:00 08/09/1999,,380.646
09:00:00 09/09/1999,,378.767
09:00:00 10/09/1999,,380.793
09:00:00 11/09/1999,,380.711
09:00:00 12/09/1999,,379.523
09:00:00 13/09/1999,,380.488
09:00:00 14/09/1999,,376.961
09:00:00 15/09/1999,,376.653
09:00:00 16/09/1999,,373.477
09:00:00 17/09/1999,,377.982
09:00:00 18/09/1999,,381.433
09:00:00 19/09/1999,,382.956
09:00:00 20/09/1999,,381.301
09:00:00 21/09/1999,,379.815
09:00:00 22/09/1999,,380.653
09:00:00 23/09/1999,,376.213
09:00:00 24/09/1999,,371.751
09:00:00 25/09/1999,,368.438
09:00:00 26/09/1999,,365.342
09:00:00 27/09/1999,,362.495
09:00:00 28/09/1999,,359.466
09:00:00 29/09/1999,,355.468
09:00:00 30/09/1999,,355.468
09:00:00 01/10/1999,,352.127
09:00:00 02/10/1999,,349.739
09:00:00 03/10/1999,,351.644
09:00:00 04/10/1999,,348.569
09:00:00 05/10/1999,,346.467
09:00:00 06/10/1999,,343.181
09:00:00 07/10/1999,,341.498
09:00:00 08/10/1999,,340.104
09:00:00 09/10/1999,,338.536
09:00:00 10/10/1999,,337.892
09:00:00 11/10/1999,,336.131
09:00:00 12/10/1999,,336.981
09:00:00 13/10/1999,,332.737
09:00:00 14/10/1999,,334.637
09:00:00 15/10/1999,,330.154
09:00:00 16/10/1999,,331.226
09:00:00 17/10/1999,,328.961
09:00:00 18/10/1999,,330.999
09:00:00 19/10/1999,,333.825
09:00:00 20/10/1999,,336.899
09:00:00 21/10/1999,,336.412
09:00:00 22/10/1999,,337.016
09:00:00 23/10/1999,,339.143
09:00:00 24/10/1999,,341.93
09:00:00 25/10/1999,,343.524
09:00:00 26/10/1999,,348.42
09:00:00 27/10/1999,,345.863
09:00:00 28/10/1999,,345.737
09:00:00 29/10/1999,,340.793
09:00:00 30/10/1999,,340.349
09:00:00 31/10/1999,,341.823
09:00:00 01/11/1999,,342.149
09:00:00 02/11/1999,,340.968
09:00:00 03/11/1999,,340.502
09:00:00 04/11/1999,,338.429
09:00:00 05/11/1999,,339.319
09:00:00 06/11/1999,,341.383
09:00:00 07/11/1999,,342.406
09:00:00 08/11/1999,,342.442
09:00:00 09/11/1999,,342.926
09:00:00 10/11/1999,,345.852
09:00:00 11/11/1999,,347.856
09:00:00 12/11/1999,,348.131
09:00:00 13/11/1999,,344.608
09:00:00 14/11/1999,,340.986
09:00:00 15/11/1999,,345.463
09:00:00 16/11/1999,,349.35
09:00:00 17/11/1999,,350.551
09:00:00 18/11/1999,,347.418
09:00:00 19/11/1999,,341.128
09:00:00 20/11/1999,,336.424
09:00:00 21/11/1999,,341.472
09:00:00 22/11/1999,,341.184
09:00:00 23/11/1999,,342.261
09:00:00 24/11/1999,,339.558
09:00:00 25/11/1999,,334.068
09:00:00 26/11/1999,,331.764
09:00:00 27/11/1999,,330.713
09:00:00 28/11/1999,,330.336
09:00:00 29/11/1999,,328.78
09:00:00 30/11/1999,,326.214
09:00:00 01/12/1999,,321.206
09:00:00 02/12/1999,,316.915
09:00:00 03/12/1999,,314.221
09:00:00 04/12/1999,,314.904
09:00:00 05/12/1999,,313.798
09:00:00 06/12/1999,,313.501
09:00:00 07/12/1999,,308.79
09:00:00 08/12/1999,,308.213
09:00:00 09/12/1999,,309.773
09:00:00 10/12/1999,,313.254
09:00:00 11/12/1999,,312.004
09:00:00 12/12/1999,,320.805
09:00:00 13/12/1999,,320.88
09:00:00 14/12/1999,,315.177
09:00:00 15/12/1999,,314.095
09:00:00 16/12/1999,,317.632
09:00:00 17/12/1999,,322.711